Weather in Landau

Germany     49°11′43″N   8°07′25″E
temp.,
°C
wind,
m/s
gust,
m/s
humid.,
%
clouds,
%
prec.,
mm/h
press.,
hPa
HPBL,
m
9 december, thu
thu901:00+1w2796100 0.0 1005220
04:00+1w2696100 0.0 1006204
07:000w249648 0.0 1007130
10:00+1wsw3109132 0.0 1008422
13:00+3wsw478197 0.0 1008658
16:00+2sw31097100 0.4 1008619
19:00+2wsw41196100 1.3 1008777
22:00+2sw41093100 0.0 1008712
10 december, fri
fri1001:00+2sw378560 0.0 1006587
04:00−1sse2698100 0.0 1002173
07:00−1s1294100 0.0 99953
10:000s31097100 1.8 997529
13:000s3998100 4.1 996471
16:00+2w51397100 1.4 9971024
19:00+2wsw61387100 1.4 10001100
22:00+2wsw71390100 0.0 10031007
11 december, sat
sat1101:00+1wsw61396100 0.0 1006920
04:00+1wsw61396100 0.1 1009956
07:00+1wsw51294100 0.1 1012679
10:00+1wsw4997100 0.3 1016518
13:00+2wnw379257 0.4 1019563
16:00+1w3683100 0.0 1022296
19:00+1wsw2491100 0.0 1024168
22:00+1wsw3696100 0.0 1026297
12 december, sun
sun1201:00+1sw259597 0.0 1027259
04:00+2sw3898100 0.0 1028504
07:00+1sw3896100 0.0 1028512
10:00+2ssw3893100 0.0 1029377
13:00+1ssw3898100 0.4 1028339
16:00+1ssw31196100 0.3 1027534
19:00+2sw3897100 1.0 1028400
22:00+2wsw2698100 1.6 1028262
13 december, mon
mon1301:00+2wsw2498100 2.0 1028175
04:00+3w1299100 0.0 102882
07:00+3w1299100 0.0 102856
10:00+4wnw119998 0.0 102853
13:00+6nw1193100 0.0 1027154
16:00+6e0197100 0.0 102811
19:00+5wnw1197100 0.0 102811
22:00+5w1194100 0.0 102810